GFSNGP_sfc_30mbdewp_024.txt.gz
Dewpoint
25 25 23 21 20 21 20 22 20 20 24 32 35 35 35 36 36 36 35 35 34 34 32 31 28 25 24 24 25 26 25 29 30 31 31 30 31 33 36 35 34 31 24 23
18 29 27 20 19 25 26 23 24 28 31 35 36 34 35 37 36 35 35 34 34 33 32 32 30 23 23 21 22 22 25 29 32 32 33 34 35 36 35 36 35 26 25 24
9 29 25 17 24 25 24 26 25 23 29 34 33 34 36 36 35 35 34 34 34 33 33 31 22 21 20 20 21 21 29 32 33 33 32 32 34 36 35 33 32 31 25 24
16 22 6 20 28 27 25 29 33 33 34 34 34 36 36 36 35 34 33 31 30 26 23 22 21 19 20 19 20 28 31 31 33 33 33 35 34 34 33 33 31 25 25 25
14 19 17 24 29 27 25 27 35 34 35 35 36 35 34 34 34 34 34 31 22 18 19 19 18 19 19 20 24 27 27 28 30 31 32 35 34 33 33 31 25 26 26 24
27 10 2 17 30 31 30 26 37 37 36 35 34 30 30 35 33 33 24 20 15 15 17 17 17 18 19 22 25 26 26 27 29 32 32 33 34 32 31 27 26 25 24 24
25 19 21 25 32 31 25 18 39 38 37 36 33 32 35 37 31 23 18 15 16 17 17 18 19 21 23 25 25 26 27 27 27 28 29 30 32 32 28 26 25 23 20 21
28 24 13 30 32 27 28 39 39 39 37 36 36 38 37 25 21 18 15 16 17 18 18 20 23 24 24 25 25 27 27 26 26 27 26 24 25 24 24 23 22 21 17 17
27 22 28 33 32 33 39 39 39 38 38 37 37 37 24 22 18 17 17 17 19 19 20 22 24 26 25 26 26 27 26 26 26 26 26 24 21 22 22 22 21 20 19 17
31 30 32 34 40 40 41 39 39 39 39 39 37 27 20 18 18 18 18 19 20 21 22 23 26 27 27 27 27 27 26 25 26 23 24 25 22 22 22 20 20 20 19 18
32 34 38 40 40 40 39 39 39 39 37 35 23 18 18 17 19 20 20 22 23 24 25 26 28 28 29 28 28 26 25 25 23 24 24 25 22 23 23 22 21 20 20 18
28 32 32 36 40 40 39 38 38 37 22 19 18 17 17 19 21 22 23 24 25 27 27 28 29 28 29 29 28 26 25 24 23 22 23 26 24 22 23 24 25 26 24 18
36 40 41 40 41 41 40 39 35 24 19 17 18 19 21 22 24 24 24 26 27 27 29 28 28 28 30 30 29 29 26 24 23 25 25 26 23 22 20 23 24 24 25 24
41 40 39 40 39 41 39 33 21 19 20 20 21 24 24 24 24 24 25 27 28 29 29 28 28 29 30 29 27 28 27 25 23 24 21 21 24 23 23 21 21 22 22 24
40 39 39 39 39 32 25 20 19 19 21 22 25 24 26 25 24 25 27 28 29 28 28 28 29 28 30 30 27 28 26 24 22 23 21 20 22 24 25 21 22 23 20 22
39 39 38 37 25 20 20 20 20 21 22 22 23 24 27 27 27 28 28 29 27 27 27 27 26 28 31 31 28 28 24 24 22 22 23 21 22 23 24 22 23 20 20 20
38 38 33 24 22 22 22 22 22 22 23 23 24 27 27 27 28 28 28 27 26 26 26 26 27 29 31 32 30 27 24 21 21 22 23 25 25 25 24 23 20 20 23 22
33 27 24 24 23 24 24 24 24 23 23 26 27 26 27 27 28 28 27 26 26 25 25 26 27 30 32 32 31 26 24 22 20 20 19 21 22 24 25 24 21 21 22 23
25 26 26 26 24 24 24 24 24 25 25 26 26 27 27 28 27 27 27 26 25 24 24 26 29 32 31 31 30 25 22 20 19 20 21 21 21 22 24 24 24 24 23 22
23 25 25 23 22 20 19 23 24 25 26 28 27 27 29 27 27 26 26 26 26 26 27 27 30 31 31 30 30 26 22 20 19 19 21 22 21 22 24 25 25 24 22 22
19 21 20 21 22 24 25 26 27 26 27 28 29 29 28 28 27 26 26 26 27 26 27 30 31 30 31 30 30 27 25 24 24 22 22 24 21 21 22 24 24 24 23 20
23 22 21 22 23 24 25 27 28 28 28 29 29 28 27 27 26 25 25 26 28 28 28 30 30 31 31 31 30 29 28 27 25 24 23 24 24 21 19 22 23 23 22 20
24 24 25 24 24 25 26 28 28 28 28 28 28 27 28 27 26 26 25 27 29 29 31 30 30 30 31 31 31 29 28 27 25 24 24 24 25 24 22 22 23 23 23 22
26 26 25 26 26 27 26 26 27 28 28 28 28 28 28 27 27 27 27 29 31 30 30 30 31 31 31 30 29 29 28 27 26 25 24 25 25 25 25 24 24 24 25 24
25 26 26 26 26 26 27 28 28 28 28 28 28 28 28 28 29 29 28 28 29 28 28 28 31 31 31 30 29 28 28 27 27 27 25 25 25 25 25 24 24 23 24 25
27 27 27 27 28 28 28 28 27 28 29 29 28 29 30 31 30 28 28 27 27 28 27 28 28 28 28 30 30 30 30 29 28 27 27 26 26 26 25 23 23 23 23 24
28 27 28 28 29 28 27 28 29 30 30 29 29 30 30 29 28 27 26 28 26 27 26 25 26 27 28 29 29 29 30 30 30 28 28 27 27 26 25 24 23 23 24 24

GFSNGP_sfc_30mbdewp_027.txt.gz
Dewpoint
25 26 23 19 19 24 23 22 19 19 23 25 33 34 35 35 36 36 35 34 33 32 32 31 31 25 23 22 23 23 26 29 31 32 32 32 32 33 35 36 35 36 34 30
23 29 27 21 21 20 20 22 24 24 26 35 36 36 36 36 36 35 34 33 32 32 33 33 24 21 20 20 21 23 26 30 31 31 32 32 33 34 36 36 32 34 33 30
12 28 21 16 19 21 24 25 24 24 28 35 33 34 36 36 36 35 34 33 33 33 29 23 21 20 18 19 21 22 30 31 31 33 32 33 34 34 33 32 32 32 30 25
13 17 5 13 26 27 23 26 30 31 33 34 33 35 36 36 35 35 34 32 29 22 22 21 20 19 19 20 20 29 29 29 30 31 31 32 34 32 33 32 32 28 25 24
13 14 13 15 27 26 25 23 33 32 34 34 36 35 35 36 34 33 33 32 20 19 20 19 17 18 19 20 26 26 27 27 28 29 31 31 32 33 32 31 27 26 25 24
23 9 1 8 30 31 29 23 35 34 34 35 35 32 32 35 35 34 24 17 15 17 17 17 18 19 20 23 25 25 26 27 28 27 28 28 29 32 32 30 26 25 23 22
21 15 17 20 31 30 22 13 37 36 36 35 34 33 33 36 34 25 15 15 17 18 18 19 21 22 23 24 24 25 27 27 26 26 26 26 28 31 28 26 24 22 20 21
26 23 15 27 31 27 26 33 38 38 37 36 35 35 37 34 21 15 16 16 18 19 20 22 23 24 24 25 25 26 27 26 26 27 26 23 23 24 24 23 21 21 17 17
26 20 26 31 32 33 35 36 39 38 38 38 37 37 30 20 17 17 17 18 19 20 22 23 24 26 26 26 27 27 27 26 26 24 25 25 22 22 22 22 20 20 20 18
28 26 29 31 34 39 39 39 39 39 38 38 37 28 22 19 19 17 18 20 21 23 24 25 26 28 28 28 28 27 27 26 25 24 24 25 23 22 21 21 20 20 20 19
31 32 36 38 38 39 40 39 39 39 39 37 34 23 19 18 19 20 21 23 24 26 26 26 28 29 28 29 27 26 26 26 26 23 23 26 22 23 23 22 21 21 21 19
24 30 32 32 39 40 39 38 38 37 30 26 20 18 18 20 21 23 22 24 26 26 26 29 28 27 28 29 29 29 28 28 27 24 22 26 25 22 23 24 25 26 26 21
31 34 36 39 40 40 39 39 36 24 19 18 18 19 20 22 24 23 24 26 26 26 29 29 28 28 28 29 30 28 27 28 28 25 26 23 25 24 22 21 23 24 24 26
39 40 39 40 39 41 40 32 23 20 20 20 22 23 23 24 24 23 24 27 28 28 28 28 28 28 29 29 30 28 28 28 27 25 26 21 21 22 24 23 19 20 22 23
40 40 39 40 41 36 24 20 20 20 22 23 24 24 25 24 23 24 27 28 28 27 27 26 25 26 27 29 31 30 28 27 24 24 24 22 21 20 22 25 20 21 21 20
40 39 39 37 28 22 22 23 22 21 22 22 23 23 27 27 26 27 28 28 26 25 25 25 25 26 28 29 32 31 30 27 24 23 22 23 23 21 21 22 22 21 18 19
38 37 26 24 26 28 28 25 23 23 23 22 23 26 26 26 27 26 27 27 26 25 26 25 25 26 27 31 32 31 30 26 23 23 22 22 22 24 24 24 23 21 19 19
32 30 31 33 33 31 25 25 24 23 21 24 26 25 25 25 25 26 25 25 26 26 26 25 25 27 28 31 31 31 29 26 24 21 20 19 19 20 21 23 23 22 21 21
34 34 34 32 29 27 26 25 24 24 25 25 25 25 26 26 27 26 26 25 25 25 26 25 26 28 29 31 31 30 27 25 23 20 19 19 19 19 20 22 23 23 23 22
35 33 31 27 25 22 20 22 24 24 26 26 25 26 26 26 26 26 25 25 26 26 27 27 26 28 28 29 30 29 27 25 23 21 19 19 19 19 19 20 22 23 23 22
21 21 21 22 22 24 24 26 26 26 25 26 26 28 28 28 27 26 26 25 26 26 27 27 27 29 29 30 30 29 28 26 25 24 23 23 23 22 21 20 20 22 22 22
22 21 22 23 23 24 25 26 27 26 27 27 27 29 28 27 26 25 25 25 26 26 27 28 29 30 30 31 30 30 29 28 27 26 24 24 24 23 22 22 20 19 22 22
26 25 25 25 24 25 26 26 26 26 26 26 26 26 26 27 27 26 26 27 26 27 29 29 28 28 29 31 30 29 29 28 27 26 25 25 24 24 24 23 22 22 21 21
24 24 25 26 26 26 25 26 27 27 27 27 27 27 27 27 27 26 27 28 27 27 27 27 26 27 27 28 29 29 29 28 28 27 26 26 25 25 25 24 24 24 23 23
25 26 26 26 26 26 27 27 28 27 27 27 28 29 27 26 27 27 29 29 27 27 26 26 27 27 28 28 28 27 28 29 28 27 27 26 25 25 25 25 25 24 23 23
27 27 28 28 28 28 28 28 27 27 27 27 28 27 27 27 28 30 29 26 26 25 25 25 23 24 24 23 23 24 26 28 28 28 28 28 27 26 26 26 25 24 23 23
27 27 27 27 27 27 27 26 26 27 29 28 27 29 29 28 29 29 26 26 24 23 21 21 20 17 17 16 17 17 18 20 23 25 28 29 28 27 27 26 25 24 23 23

GFSNGP_sfc_30mbdewp_033.txt.gz
Dewpoint
25 26 24 19 22 26 22 21 14 14 18 19 23 32 35 37 37 36 35 35 34 33 32 32 31 27 25 24 25 25 24 28 32 32 32 31 31 32 34 33 32 33 32 32
24 28 26 22 21 22 26 24 23 22 21 24 28 34 35 36 36 36 35 35 34 32 32 33 29 24 23 22 22 25 24 28 32 31 31 30 30 32 33 32 32 33 32 27
16 23 19 18 20 21 22 23 23 20 21 32 32 33 34 36 36 36 36 35 32 32 33 30 23 22 20 20 23 23 26 31 29 29 29 29 29 31 30 32 31 32 29 25
13 15 -1 10 25 23 22 22 24 24 27 31 33 35 36 36 37 36 36 35 33 32 26 23 22 20 20 20 21 24 29 28 27 28 28 28 28 27 28 32 32 31 26 24
11 12 10 6 16 19 23 14 25 25 29 33 35 35 35 37 37 37 37 35 33 25 23 22 19 19 20 21 24 27 26 26 27 28 28 26 26 26 27 30 32 31 26 23
18 7 4 5 18 30 27 19 26 29 31 33 34 29 29 36 37 37 36 32 23 22 20 18 19 21 21 21 24 25 26 26 27 28 27 26 26 25 28 31 32 28 24 22
19 16 16 19 22 29 17 12 28 33 33 35 32 33 34 37 36 34 28 19 20 19 19 20 22 22 23 24 25 26 27 28 28 27 27 27 26 25 25 26 27 26 24 23
23 20 12 25 30 23 24 28 31 35 34 34 35 35 35 35 30 21 17 18 19 20 21 23 24 24 24 25 27 28 28 27 27 27 26 26 25 24 24 25 24 24 23 23
23 18 25 26 31 33 33 31 32 36 36 37 36 36 32 26 19 17 20 24 20 21 23 25 26 26 26 27 29 27 28 27 27 27 27 27 24 23 23 23 22 22 21 22
25 24 27 29 30 31 33 33 35 38 38 38 37 35 24 20 26 29 24 20 22 23 23 24 26 28 29 28 27 27 27 27 27 27 26 28 25 23 22 23 22 21 21 21
28 28 29 30 33 34 35 37 38 39 39 39 37 25 23 30 28 23 22 23 23 24 25 24 28 29 28 28 28 27 28 28 28 27 27 28 25 23 23 24 24 22 21 23
23 26 27 28 33 38 38 38 39 39 35 31 29 29 29 25 22 23 23 23 25 25 25 26 27 27 27 28 29 28 28 28 29 29 28 28 25 24 26 26 26 25 25 26
31 35 35 36 37 39 39 39 36 33 29 26 24 23 23 27 30 25 23 24 25 25 27 27 27 26 26 27 28 28 28 29 29 30 29 27 27 26 24 22 25 25 25 24
39 39 37 38 39 39 31 26 25 24 28 29 30 30 29 28 26 22 22 24 26 27 27 26 26 25 26 26 27 28 28 29 30 30 29 29 27 26 26 24 22 21 23 22
39 40 39 33 26 24 24 28 31 32 32 32 30 28 28 24 22 22 25 27 27 27 26 25 25 25 25 26 26 27 27 28 29 29 29 29 28 27 26 25 24 22 22 22
31 27 26 29 30 31 31 31 30 30 31 31 33 31 27 25 26 26 27 27 27 24 24 25 25 26 27 27 26 26 27 30 31 29 28 28 27 25 24 24 24 23 22 22
34 30 32 31 31 31 31 32 32 32 33 34 31 26 27 28 27 26 26 27 27 26 25 25 25 26 27 27 27 27 27 28 29 29 27 27 27 25 24 23 22 21 21 24
34 34 33 33 32 32 32 33 34 34 31 25 26 27 26 25 24 25 25 26 25 25 26 26 26 26 27 27 27 28 27 27 27 28 27 27 26 25 24 22 21 21 22 23
35 34 34 32 33 34 34 33 30 28 27 27 26 25 25 25 25 25 25 25 25 25 26 26 26 27 27 28 27 28 29 29 28 27 27 26 26 25 24 22 21 21 21 22
33 34 33 33 32 28 24 24 26 26 26 26 25 25 26 26 26 26 26 26 27 28 28 27 27 27 27 27 28 27 27 27 26 28 27 26 26 25 26 24 23 23 24 24
22 23 23 24 24 25 25 25 25 25 26 26 26 26 26 26 26 28 27 26 28 28 27 27 26 27 27 28 27 27 27 28 28 28 27 27 26 25 25 26 26 26 25 25
24 24 24 24 24 25 26 26 26 26 26 26 25 24 24 25 26 27 28 27 28 27 27 27 27 29 29 28 27 28 27 27 27 27 27 27 27 26 26 26 26 26 26 26
25 26 26 26 26 27 27 27 25 25 24 25 25 26 26 26 27 26 26 29 27 28 27 28 29 29 28 28 28 27 26 26 26 26 27 27 27 27 26 26 26 26 26 26
28 28 27 27 27 25 23 23 23 24 24 25 25 25 26 25 25 26 28 27 27 26 27 28 28 28 24 25 24 23 22 22 21 21 22 22 24 26 27 27 26 26 27 27
26 25 24 22 19 19 19 18 19 20 19 19 21 22 23 24 25 26 26 26 27 27 28 27 23 20 20 18 17 16 16 16 16 16 17 18 19 21 23 24 26 27 27 27
20 19 19 19 17 16 15 14 15 16 16 16 17 18 20 21 21 23 25 26 28 29 26 22 19 17 16 14 13 12 12 12 11 11 11 12 12 13 15 16 21 26 28 28
16 14 13 13 13 12 11 11 12 11 13 15 15 16 16 17 19 20 21 24 26 23 19 16 14 13 12 11 11 11 10 10 8 8 9 9 10 11 12 14 16 23 29 28

GFSNGP_sfc_30mbdewp_036.txt.gz
Dewpoint
25 25 24 21 22 24 20 18 17 11 12 8 15 20 25 33 37 37 38 37 37 36 34 31 30 30 29 28 26 23 21 21 23 28 29 28 29 28 28 30 30 30 30 30
26 27 25 23 22 21 23 20 21 19 17 19 22 26 30 35 37 37 37 36 36 36 34 31 31 30 27 24 22 22 22 21 25 29 28 28 28 27 28 29 29 30 29 28
19 23 22 20 23 21 20 24 23 19 20 22 25 27 28 32 36 36 37 36 36 35 33 31 31 26 24 21 22 22 21 24 28 27 27 26 26 26 26 27 28 30 29 29
23 19 8 11 20 21 22 22 21 21 20 23 24 30 33 34 35 36 37 37 36 34 32 31 25 22 21 19 20 21 23 25 26 26 25 25 25 25 26 27 28 29 30 28
22 15 12 8 15 16 19 12 20 19 20 26 33 34 34 35 36 37 37 37 36 34 29 24 22 20 19 20 20 22 23 23 23 24 25 25 25 26 26 25 26 29 30 27
22 19 16 17 24 30 28 16 22 27 27 32 33 29 20 36 38 38 38 37 34 27 23 21 19 20 20 19 20 20 23 23 24 24 25 25 26 26 26 26 25 29 28 27
28 26 23 21 21 30 18 17 28 32 32 33 32 28 36 36 38 38 37 33 25 22 19 19 21 21 20 20 20 22 25 25 24 23 25 26 27 26 25 24 25 27 28 26
28 25 18 25 30 25 29 32 30 34 34 35 35 37 37 38 37 34 29 22 19 20 23 24 23 22 17 20 23 25 26 24 24 24 26 25 25 25 25 24 24 24 29 27
27 24 27 28 31 33 34 33 33 34 34 37 37 36 36 35 32 25 22 19 25 28 26 24 22 22 19 20 26 26 24 24 25 26 25 25 24 24 24 22 22 23 22 22
28 25 27 28 30 30 31 32 34 33 35 37 37 37 34 29 24 23 27 27 24 27 22 22 24 25 24 26 26 25 24 24 25 26 25 24 23 24 23 22 23 23 22 22
30 28 27 28 30 34 36 37 38 38 39 39 39 38 30 26 29 28 25 29 28 22 20 19 23 25 25 25 26 25 25 25 26 26 25 24 23 24 23 23 24 22 22 22
29 31 32 32 36 38 38 38 40 40 38 38 37 30 30 30 26 30 32 29 22 22 23 23 25 24 24 25 26 27 26 26 26 26 26 25 25 23 25 25 25 26 25 24
36 39 39 39 40 40 39 37 36 35 33 31 30 28 28 31 34 33 27 25 23 23 24 25 25 24 24 26 28 28 27 27 28 28 28 27 27 27 24 25 26 26 27 27
39 40 38 37 35 32 31 31 32 32 32 33 34 35 34 34 31 27 23 23 24 24 26 25 24 23 25 25 26 27 28 27 27 27 28 28 27 28 28 25 25 25 26 24
34 38 36 31 30 31 33 33 31 31 32 32 33 33 32 30 29 26 24 26 27 26 25 24 23 23 24 26 26 26 25 25 26 29 29 28 28 28 29 27 25 24 24 23
33 34 34 32 31 31 32 33 31 31 33 32 30 32 31 27 24 26 27 27 27 25 24 25 26 26 27 27 26 26 26 26 26 27 28 29 27 27 28 27 26 23 22 22
33 32 32 32 32 33 33 34 32 31 31 32 33 31 26 28 29 27 27 27 30 29 29 29 28 26 27 28 28 27 27 27 26 26 26 26 26 27 28 28 27 24 24 26
33 32 33 33 33 33 33 33 34 33 31 28 28 28 28 27 26 28 29 29 28 28 29 29 30 28 28 28 28 28 29 30 30 29 30 30 26 26 28 28 26 25 24 25
32 32 31 31 32 32 31 28 27 28 28 28 27 27 28 28 28 28 29 29 28 29 28 30 30 29 28 28 28 29 31 30 29 29 29 30 29 27 26 28 28 28 26 26
29 29 28 27 26 27 27 27 28 27 28 28 28 29 29 29 30 29 29 29 29 28 29 29 29 29 29 29 28 29 30 29 27 26 28 28 28 28 28 28 28 28 29 28
24 25 26 26 26 28 28 29 29 28 28 27 27 27 27 28 28 29 29 28 28 31 30 29 29 29 28 29 29 30 30 29 28 28 27 27 27 28 28 28 28 28 28 29
25 26 27 28 28 28 28 26 26 26 25 25 25 26 25 24 25 26 27 27 27 29 28 29 30 31 31 31 30 30 30 29 27 27 27 27 27 27 27 27 27 27 27 28
28 28 29 28 28 27 26 22 23 23 23 23 23 22 21 22 22 22 22 23 26 26 25 28 30 29 30 30 30 29 28 26 25 25 25 25 24 25 26 26 27 27 27 27
28 27 26 24 22 19 16 14 16 17 19 18 17 19 19 20 21 19 20 23 25 26 27 28 29 29 28 29 28 26 24 22 21 20 19 19 20 20 20 22 23 25 27 28
25 21 19 18 15 14 13 11 11 11 11 12 13 14 16 16 17 19 22 22 22 23 26 27 28 23 25 23 22 20 20 19 17 16 16 16 16 16 17 17 17 19 20 24
17 16 15 14 13 11 10 8 9 10 10 11 12 13 14 15 16 17 19 19 20 19 19 20 17 18 18 17 17 16 16 15 14 13 13 13 13 14 14 14 15 16 18 21
13 12 12 11 9 8 9 9 10 10 11 12 11 12 13 14 15 16 15 15 15 15 15 14 13 12 13 13 13 13 13 12 10 9 10 10 10 10 11 11 12 14 16 17

GFSNGP_sfc_30mbdewp_039.txt.gz
Dewpoint
21 23 24 22 20 21 21 20 17 15 13 7 6 10 17 20 26 30 35 39 39 40 39 38 36 35 32 34 32 29 25 22 22 24 26 26 27 28 26 27 28 28 27 27
27 26 26 23 22 20 17 18 17 15 12 14 19 16 20 20 26 28 34 37 38 38 38 37 35 33 33 32 29 26 23 23 23 23 25 26 27 27 25 26 26 26 27 28
21 23 22 20 22 19 17 18 18 17 17 17 20 22 22 22 27 29 32 36 37 37 37 36 34 33 32 27 25 24 23 22 21 25 25 24 23 24 24 25 26 27 29 29
23 22 13 13 16 15 18 18 16 16 16 16 16 25 28 27 28 31 33 35 37 37 37 36 34 32 26 27 26 23 22 20 21 24 23 22 22 23 25 26 26 25 28 30
26 17 16 14 10 16 15 13 17 17 17 17 25 30 28 30 31 31 34 36 37 37 36 34 30 25 26 23 21 20 20 19 20 21 21 22 22 23 26 25 25 25 28 29
25 24 21 22 22 25 23 16 20 20 20 21 28 25 26 32 33 34 36 37 37 37 35 30 25 24 22 25 23 19 17 20 20 21 21 21 23 24 26 25 24 24 26 29
29 30 28 23 23 27 17 24 27 26 25 27 26 32 36 32 34 35 36 37 37 34 28 26 24 24 28 23 20 18 22 22 22 21 21 23 24 25 25 24 24 26 28 28
34 32 22 23 26 22 31 27 29 30 29 34 34 36 36 36 36 36 37 35 30 27 23 24 30 27 23 18 18 22 23 23 22 21 23 24 24 25 24 24 24 25 29 29
28 26 26 26 24 28 29 30 30 31 32 33 34 34 35 36 36 35 32 26 24 23 30 29 28 23 18 19 24 23 24 23 23 23 24 24 24 23 23 23 24 25 25 26
26 23 24 25 28 29 32 33 34 35 35 35 35 36 36 35 33 28 24 25 30 33 32 31 27 22 21 26 26 25 24 23 23 24 24 24 24 22 22 24 26 26 25 24
28 26 29 27 33 37 38 38 37 38 38 39 39 38 37 31 27 27 29 34 34 32 28 20 21 24 24 25 25 24 23 23 25 26 26 25 23 22 23 24 26 25 26 26
30 34 36 35 39 40 39 39 39 39 37 34 35 33 31 30 31 35 35 33 28 23 22 22 23 24 24 24 24 25 25 26 27 27 27 26 24 24 26 25 25 25 25 25
37 39 39 39 36 35 34 33 32 32 31 31 31 31 34 34 35 32 27 24 24 26 24 25 26 25 23 23 27 28 27 27 27 27 27 27 28 27 27 28 27 26 27 26
38 39 39 34 33 34 35 34 34 35 36 35 34 34 32 32 31 30 28 25 24 23 23 24 24 22 23 24 25 27 27 27 27 27 27 27 28 28 27 27 28 28 29 28
34 35 34 33 34 33 33 33 33 33 34 34 33 32 30 27 25 24 24 24 25 25 24 22 21 20 20 24 26 27 27 27 28 29 30 30 30 30 29 28 28 28 26 26
35 34 33 32 32 32 32 32 32 33 32 29 28 29 29 27 24 23 24 25 26 24 23 27 28 27 27 26 26 26 26 27 27 28 29 29 29 28 27 27 27 28 28 25
33 32 31 32 32 32 31 30 29 29 30 30 28 28 25 27 27 23 25 27 31 31 32 32 31 28 28 27 25 26 27 28 29 30 33 30 29 30 28 27 27 28 29 30
33 32 32 32 31 31 30 31 30 28 27 28 29 29 29 29 29 29 30 32 32 32 31 31 31 31 30 29 28 29 29 30 31 32 32 32 31 30 31 29 28 27 28 29
31 30 30 30 29 26 25 26 27 28 30 30 29 29 31 31 31 30 31 31 30 30 27 29 30 30 29 29 29 29 30 30 30 31 30 29 28 28 29 31 29 28 28 28
27 26 25 25 27 28 27 28 30 29 29 29 30 30 28 29 29 30 30 29 29 30 32 30 28 29 30 30 30 30 30 30 30 30 30 29 28 28 29 30 29 28 29 29
23 25 27 27 29 31 30 29 29 26 26 27 26 25 25 26 27 26 23 20 20 25 26 25 23 24 25 27 28 30 32 31 31 30 30 28 28 28 28 28 28 29 29 29
26 29 31 31 29 28 27 23 24 25 24 24 24 23 22 18 19 20 22 20 21 22 24 24 25 25 26 27 29 30 30 31 30 30 29 27 27 26 26 27 27 28 29 29
29 29 29 29 27 25 22 19 21 22 21 20 19 17 17 17 16 17 18 17 19 21 22 22 25 26 27 28 29 30 29 30 28 27 25 23 22 22 22 22 22 23 25 26
28 27 24 22 21 17 14 13 12 13 16 14 15 17 16 16 16 16 17 18 19 20 22 24 21 19 22 25 26 26 25 25 24 22 22 19 18 18 18 18 18 18 20 20
23 20 18 17 15 14 12 8 8 9 10 11 13 14 15 15 15 16 17 19 17 17 18 18 16 14 19 19 19 19 20 19 18 18 18 17 17 16 16 16 16 16 18 19
18 17 16 13 12 10 10 8 11 12 11 12 13 13 14 15 14 16 17 16 15 15 15 15 15 13 14 14 14 14 15 15 13 13 14 14 13 13 13 12 13 14 15 17
15 14 13 12 10 9 11 11 12 12 12 13 11 12 12 13 15 15 14 14 13 14 14 14 13 11 10 10 11 11 11 11 11 9 10 9 8 8 8 8 10 11 12 15

GFSNGP_sfc_30mbdewp_042.txt.gz
Dewpoint
15 17 20 23 22 20 19 21 21 23 18 14 14 16 16 18 23 25 27 34 36 39 42 43 43 41 39 38 35 36 34 29 27 26 28 27 27 29 29 29 28 29 30 29
26 26 23 22 21 19 18 18 16 17 17 18 15 22 21 21 19 20 25 31 36 39 41 42 41 38 38 35 36 34 30 27 25 24 26 26 27 29 29 28 28 29 29 30
27 26 22 18 21 21 19 18 18 17 19 18 18 17 21 22 23 24 27 29 36 38 39 39 39 37 35 35 34 29 27 25 23 23 26 26 26 24 25 26 29 29 29 30
27 23 16 17 17 14 14 12 12 14 16 15 24 25 25 26 26 28 30 31 34 37 38 39 38 36 35 31 27 27 26 23 21 23 24 25 24 24 25 27 28 28 28 30
26 22 20 19 16 16 16 16 18 18 19 18 23 25 30 28 31 30 30 32 34 37 38 38 36 34 29 28 27 24 24 23 20 22 22 23 23 25 26 27 28 27 27 29
27 25 19 24 22 22 21 18 24 23 23 23 22 25 32 32 32 31 31 33 35 37 38 36 31 27 27 23 25 23 21 24 24 24 23 22 23 25 27 28 27 27 28 29
31 29 31 24 23 25 20 28 29 29 27 29 29 36 37 36 33 34 34 36 38 36 33 28 27 27 29 29 29 26 25 24 23 23 23 23 25 26 26 26 27 27 27 29
34 34 27 23 23 24 32 29 30 30 31 32 34 35 35 35 35 36 36 33 31 28 29 30 30 31 29 28 25 25 27 28 26 26 26 24 25 26 27 27 27 27 29 29
33 32 29 24 25 27 30 30 33 34 33 33 33 33 34 36 36 34 29 27 26 30 30 31 31 29 28 26 25 28 28 29 28 26 25 25 25 26 26 25 24 26 27 27
27 23 25 25 29 35 36 37 36 36 37 39 39 38 37 35 31 30 33 33 34 34 34 33 29 25 24 27 29 29 27 26 26 26 26 26 26 26 26 25 25 27 27 27
27 29 29 35 39 40 39 39 39 39 37 35 37 36 32 30 31 34 34 34 32 31 28 23 25 28 28 27 26 26 26 25 26 27 28 29 28 26 25 26 26 26 27 28
34 37 37 38 36 36 35 35 35 35 33 32 32 33 35 35 34 33 31 30 28 27 27 29 26 24 24 25 25 25 25 27 28 29 29 29 28 27 27 27 27 26 25 26
38 39 39 36 35 35 34 34 35 35 35 35 36 35 33 31 30 29 28 29 28 28 27 24 25 25 25 24 25 27 28 28 28 28 28 28 27 27 27 29 29 29 28 27
37 39 35 35 35 35 35 35 34 34 33 33 32 32 32 32 31 30 29 27 24 24 24 23 23 23 24 24 25 27 28 28 28 28 29 30 29 28 28 27 27 27 28 29
35 35 34 35 34 33 34 33 32 32 33 32 32 31 29 27 25 24 24 23 24 24 23 22 25 26 26 28 27 27 28 29 29 30 31 31 31 30 29 29 30 28 28 29
34 34 33 33 32 32 32 32 31 32 32 31 31 27 23 23 22 23 23 29 29 29 29 29 28 29 30 29 27 26 27 27 28 29 31 30 30 30 31 30 29 28 27 28
33 32 33 32 31 30 30 31 31 30 27 27 29 29 29 29 27 29 30 32 33 31 31 32 31 31 32 32 30 29 29 30 29 30 30 31 31 31 32 31 30 29 27 28
34 33 33 32 31 31 30 29 28 28 29 30 30 31 30 29 30 30 30 31 30 30 31 32 29 29 30 31 31 30 30 30 30 30 30 31 32 31 30 27 26 27 30 31
32 31 31 30 28 27 27 28 29 31 30 29 29 29 29 29 26 28 28 27 26 26 28 28 27 25 23 24 26 26 27 28 30 29 29 30 30 29 28 29 28 27 29 29
29 27 26 29 30 29 30 31 30 29 28 26 26 24 23 21 24 26 24 25 23 24 21 22 22 22 22 24 25 24 24 24 26 27 31 30 30 29 29 27 27 27 28 29
26 27 29 30 29 29 29 28 25 23 23 25 24 22 20 20 21 20 20 19 21 20 21 21 20 23 23 22 22 24 25 25 26 26 28 30 30 28 27 26 26 27 28 29
28 31 31 30 28 26 23 22 24 23 22 20 20 18 18 16 17 18 18 19 19 20 20 19 24 18 16 18 23 25 26 27 28 28 28 28 26 24 23 23 22 22 22 23
30 30 29 27 26 23 20 17 22 19 18 16 19 18 17 17 17 17 17 18 20 19 17 19 18 14 14 19 19 20 20 22 21 22 22 22 22 21 21 20 20 19 19 18
29 27 24 22 20 17 15 12 11 14 14 13 16 17 16 16 17 17 19 18 17 17 17 19 16 13 14 16 15 15 16 17 15 16 17 18 18 18 18 17 16 16 16 17
22 20 19 18 16 14 12 9 10 13 13 14 15 15 15 17 17 17 18 17 16 17 16 16 16 13 12 12 13 12 12 14 12 12 12 13 13 14 13 12 12 12 13 13
20 19 16 13 12 11 12 11 13 14 13 14 15 14 16 17 17 16 17 16 15 15 15 15 14 14 12 10 11 10 10 10 9 9 10 9 10 10 9 9 8 10 10 10
16 16 15 14 11 11 13 13 14 13 14 16 13 14 15 16 15 14 14 14 14 14 13 12 12 12 12 10 9 8 9 7 7 8 7 6 7 6 7 7 7 8 8 10

GFSNGP_sfc_30mbdewp_045.txt.gz
Dewpoint
20 23 25 22 23 24 22 23 21 21 22 22 22 20 20 24 25 25 32 40 40 40 43 46 46 46 42 39 36 35 35 35 35 35 31 29 29 30 31 29 28 29 29 31
25 28 25 22 23 22 22 20 19 20 21 23 22 23 22 22 22 25 28 31 39 44 45 45 45 42 40 36 36 36 35 32 29 29 29 32 30 29 29 29 29 30 30 30
26 25 22 21 21 20 21 22 20 17 22 24 22 24 25 25 29 28 30 32 37 42 44 44 42 40 37 36 37 35 29 27 27 29 29 28 27 26 25 26 28 29 29 29
26 23 20 23 18 14 16 19 19 19 21 23 24 30 30 31 30 30 32 33 36 38 40 40 40 37 37 33 29 29 27 28 28 27 26 26 26 25 26 28 29 28 28 28
25 20 24 22 18 19 18 22 24 24 25 26 25 31 34 33 31 31 32 34 37 39 38 36 33 30 29 29 27 28 27 25 27 27 26 26 26 28 28 28 29 28 27 28
31 23 18 24 21 23 21 23 29 28 28 31 32 31 35 35 35 36 36 36 34 30 29 28 29 27 28 27 26 27 27 27 28 28 27 28 28 28 28 28 27 28 28 29
25 21 27 29 24 25 16 25 30 31 32 32 33 37 37 35 36 33 30 30 30 30 31 31 31 30 29 29 27 28 29 29 29 29 28 28 27 27 25 26 26 27 28 28
34 28 22 25 24 23 32 33 34 34 34 33 35 35 36 36 31 29 29 29 30 30 29 29 28 28 27 27 27 28 30 30 29 30 30 29 27 27 27 26 26 27 26 28
31 31 34 31 36 38 37 36 37 38 39 39 39 39 35 31 32 33 33 33 33 32 31 27 26 27 27 27 27 29 29 30 31 30 29 28 26 26 27 27 26 25 26 26
27 31 31 39 39 39 40 39 38 36 36 37 36 32 32 33 34 33 34 33 33 32 30 28 26 25 28 28 29 29 28 28 28 28 28 28 28 28 27 27 25 26 26 26
29 38 39 37 39 38 37 37 34 34 34 34 34 34 34 33 33 32 30 30 29 28 27 25 28 28 29 28 28 26 26 27 27 28 28 29 30 28 27 27 26 25 25 26
32 39 37 35 35 35 34 35 34 35 35 35 34 33 33 32 31 30 30 28 28 28 29 29 29 26 25 25 25 25 26 26 26 27 28 28 28 27 28 27 28 29 28 28
39 38 36 35 36 36 35 35 35 35 35 33 33 32 31 30 29 30 30 29 28 28 27 25 24 24 25 26 26 25 24 25 26 27 27 27 27 27 26 27 29 29 29 29
38 36 35 36 34 35 34 34 33 33 33 32 32 32 31 30 30 30 29 26 24 24 24 25 25 25 26 27 27 26 26 27 27 27 28 28 28 28 28 27 26 25 27 28
36 37 35 35 34 33 33 33 32 32 33 32 32 31 30 27 25 26 28 28 27 27 28 28 27 27 29 30 30 29 28 28 28 28 29 29 30 30 31 30 27 27 28 28
35 34 34 33 32 32 32 32 32 32 30 27 27 27 27 28 28 30 31 31 29 27 28 28 29 31 31 32 31 31 32 32 31 30 30 30 30 30 30 30 30 30 29 28
33 32 32 31 31 31 32 31 29 28 28 27 28 29 29 29 29 27 27 28 27 27 29 31 27 26 26 24 23 23 25 27 27 27 27 28 29 29 30 30 30 29 29 27
34 33 33 33 32 30 29 29 29 28 28 28 28 27 26 23 24 26 25 26 24 25 22 24 22 22 21 23 24 24 25 24 23 22 23 24 24 27 29 29 28 27 26 26
33 32 32 31 30 29 30 30 28 27 27 27 24 25 24 22 24 23 22 21 21 19 21 21 20 21 22 21 18 16 18 20 22 22 23 24 26 26 28 28 28 27 27 26
30 31 30 30 30 30 30 29 26 23 24 23 19 15 16 18 18 17 18 20 20 20 20 18 21 16 14 14 16 19 22 22 22 24 25 24 25 25 26 28 27 25 25 25
29 29 28 28 27 26 24 23 23 21 22 17 14 13 16 16 17 17 19 19 21 16 16 18 17 12 11 14 18 18 17 18 18 19 20 20 21 22 22 21 20 20 20 19
30 29 28 26 23 23 23 21 20 17 16 17 15 15 16 17 17 17 18 18 19 16 16 19 16 11 11 14 14 14 14 15 13 14 14 16 17 17 18 18 17 16 16 16
30 29 28 25 21 18 19 20 16 12 14 16 15 16 15 17 17 17 16 18 17 16 15 18 15 11 10 12 12 11 11 12 9 10 11 12 12 13 13 12 12 12 13 13
28 25 22 21 21 17 12 12 18 14 14 17 15 14 15 16 15 17 19 17 15 15 14 15 15 12 10 9 10 9 8 8 8 7 8 8 9 9 9 9 9 10 10 9
23 22 21 19 16 14 12 14 16 15 15 17 15 13 15 18 15 15 15 15 15 14 13 13 12 13 10 9 9 8 8 7 6 7 6 5 6 5 6 7 7 8 8 8
19 16 15 14 15 14 14 16 16 14 15 15 13 9 12 18 15 14 12 12 13 14 11 11 10 10 10 8 7 7 7 5 4 6 4 2 3 2 3 4 5 6 6 7
18 18 15 14 15 15 15 16 12 12 15 11 8 9 14 15 14 12 10 8 8 12 9 10 8 7 5 8 5 6 5 2 1 4 0 0 0 0 1 2 3 4 4 4

GFSNGP_sfc_30mbdewp_051.txt.gz
Dewpoint
23 22 22 21 20 25 23 23 21 21 22 23 25 23 22 23 24 29 38 44 45 45 47 49 49 49 47 46 44 43 41 42 43 42 40 38 35 33 31 30 29 29 29 30
24 26 26 23 23 22 23 23 24 23 22 24 25 28 27 28 30 34 38 39 42 44 44 46 48 47 45 43 44 44 44 43 40 36 34 33 33 33 32 30 30 30 30 30
20 25 23 22 23 23 22 22 22 19 21 24 27 29 30 32 33 35 38 41 43 44 45 46 46 44 43 44 44 41 39 36 36 35 34 32 30 29 29 29 34 33 30 30
20 23 18 21 27 24 22 22 21 22 23 28 30 33 34 33 34 36 38 38 40 43 43 43 41 41 39 37 35 34 34 33 32 31 30 30 30 33 36 37 33 30 28 29
20 21 21 24 22 21 18 21 25 26 29 32 34 33 34 35 35 33 32 31 31 32 34 34 33 32 32 32 31 30 31 31 31 30 31 33 35 37 36 31 29 28 28 28
25 22 22 25 25 23 24 19 27 29 30 32 32 25 32 32 31 30 30 30 30 29 28 28 29 30 30 30 30 30 30 30 31 32 36 38 37 33 30 29 28 27 26 27
26 25 26 26 25 24 15 16 29 32 33 32 30 33 33 30 30 30 29 29 29 29 28 29 30 30 31 31 31 33 34 37 40 38 34 31 29 28 28 28 27 27 27 27
27 25 26 28 26 19 22 33 33 34 35 37 34 31 30 30 30 29 28 28 28 28 28 28 29 29 30 32 35 36 34 33 31 31 30 29 28 28 28 27 26 26 26 26
29 28 32 36 30 34 35 33 35 36 39 34 31 31 32 31 30 30 28 27 27 27 27 28 29 29 28 29 30 30 29 29 29 28 28 29 28 27 27 26 26 26 26 26
32 36 37 38 38 37 37 37 38 40 35 33 32 32 32 31 31 31 30 28 27 27 27 28 29 29 28 28 28 27 26 26 26 26 26 26 27 27 27 27 27 27 26 25
36 37 37 37 36 36 36 35 35 35 34 33 33 32 32 31 29 28 27 27 28 28 28 27 26 26 26 27 26 25 25 26 26 26 26 26 26 26 26 27 28 27 27 27
30 36 34 36 35 36 35 34 34 34 33 33 32 31 30 28 28 29 29 28 26 26 25 25 27 29 30 30 29 29 28 28 28 27 27 27 27 27 28 28 28 29 29 29
33 38 36 36 36 36 34 34 33 33 32 31 31 29 29 29 29 27 25 26 26 27 28 29 28 27 28 29 27 25 24 26 27 26 26 27 27 27 26 27 28 28 29 30
36 35 34 35 34 34 33 33 32 31 31 30 29 29 29 27 27 26 26 27 29 29 28 27 24 21 23 24 23 23 23 23 23 23 24 24 24 23 23 22 21 21 22 26
35 36 35 34 33 32 31 31 30 30 30 29 28 27 28 27 25 24 25 28 28 26 23 20 19 20 24 22 19 20 18 18 18 19 20 21 21 21 21 21 21 21 21 22
33 33 33 32 31 31 31 30 28 27 27 28 28 29 27 24 24 26 26 26 25 22 18 18 21 21 21 16 15 15 17 18 19 19 20 19 18 18 19 21 22 22 22 22
32 31 31 31 31 30 29 27 26 26 28 28 27 24 21 21 23 24 23 22 21 19 19 21 18 15 14 13 16 17 18 17 17 17 17 17 17 17 19 19 17 17 18 23
34 33 32 32 31 29 27 27 27 26 26 25 22 21 19 19 22 21 20 19 18 17 19 17 14 11 11 14 15 16 14 15 13 12 14 13 13 15 16 15 14 15 14 16
34 32 32 31 30 28 27 27 27 27 23 21 18 17 19 20 21 19 18 15 14 14 17 14 12 10 9 12 13 12 12 11 8 9 10 10 10 10 12 10 11 11 12 13
32 31 30 28 27 27 27 26 24 20 19 19 18 18 17 17 19 18 16 14 13 14 17 13 10 8 7 9 11 9 9 9 6 6 7 7 7 7 8 7 7 7 8 9
30 29 27 24 24 24 24 21 16 14 17 17 16 16 16 17 18 17 17 15 14 15 16 13 11 9 7 9 8 7 6 5 5 4 4 4 4 4 4 4 4 5 5 6
29 28 26 23 21 21 21 18 17 16 15 15 15 15 16 17 16 15 15 14 15 14 16 14 12 8 8 8 8 6 5 3 3 3 2 1 0 2 1 1 2 3 4 4
27 26 24 22 19 18 19 18 16 15 14 14 14 16 17 17 15 12 13 16 15 14 15 13 11 7 6 6 5 4 2 -1 -0 1 -1 -2 -2 -1 -2 -2 -0 1 2 2
23 22 22 20 17 15 15 17 16 16 14 14 15 15 17 14 15 17 16 13 12 11 10 9 9 7 6 4 4 2 -0 -3 -2 -1 -3 -4 -5 -4 -4 -4 -3 -2 -1 0
23 20 20 18 17 16 17 18 17 16 14 11 12 16 18 14 12 12 10 11 12 9 9 6 4 1 4 3 2 1 -2 -4 -2 -2 -5 -6 -7 -7 -7 -6 -5 -4 -3 -3
23 20 19 17 18 18 16 16 16 16 12 8 9 12 14 13 10 7 4 6 9 7 7 5 3 -1 -1 3 2 2 -1 -3 -2 -3 -6 -8 -9 -9 -9 -8 -7 -5 -5 -4
20 19 16 16 16 14 13 13 14 13 10 7 9 11 11 10 7 3 2 3 5 5 4 3 2 2 -1 -1 1 2 0 -2 -4 -5 -8 -11 -11 -11 -11 -11 -9 -7 -6 -6